• In United Kingdom
  • List of Countries
  • For 7 days
  • Water Temperature
  • Satellite Maps
  • Weather Map
  • Weather Widgets
  • user-avatar
    Login

    Hourly Weather Malaga

    Today, 19 September, Wednesday

    Time Temperature Precipitation Wind Pressure Humidity
    00:00 +28°C° 0 mm 1 mps 761 mmHg 66%
    01:00 +28°C° 0 mm 1 mps 761 mmHg 66%
    02:00 +27°C° 0 mm 1 mps 761 mmHg 66%
    03:00 +27°C° 0 mm 1 mps 761 mmHg 66%
    04:00 +25°C° 0 mm 0 mps 761 mmHg 67%
    05:00 +24°C° 0 mm 0 mps 761 mmHg 67%
    06:00 +26°C° 0 mm 1 mps 762 mmHg 70%
    07:00 +27°C° 0 mm 1 mps 762 mmHg 64%
    08:00 +29°C° 0 mm 1 mps 762 mmHg 58%
    09:00 +30°C° 0 mm 1 mps 762 mmHg 52%
    10:00 +31°C° 0 mm 1 mps 762 mmHg 49%
    11:00 +32°C° 0 mm 2 mps 762 mmHg 46%
    12:00 +34°C° 0 mm 2 mps 762 mmHg 42%
    13:00 +34°C° 0 mm 2 mps 762 mmHg 42%
    14:00 +34°C° 0 mm 2 mps 761 mmHg 42%
    15:00 +35°C° 0 mm 2 mps 761 mmHg 42%
    16:00 +34°C° 0 mm 2 mps 761 mmHg 46%
    17:00 +32°C° 0 mm 2 mps 761 mmHg 49%
    18:00 +31°C° 0 mm 2 mps 761 mmHg 53%
    19:00 +30°C° 0 mm 2 mps 762 mmHg 57%
    20:00 +29°C° 0 mm 1 mps 762 mmHg 62%
    21:00 +28°C° 0 mm 1 mps 762 mmHg 66%
    22:00 +28°C° 0 mm 2 mps 762 mmHg 68%
    23:00 +27°C° 0 mm 2 mps 762 mmHg 69%

    Tomorrow, 20 September, Thursday

    Time Temperature Precipitation Wind Pressure Humidity
    00:00 +27°C° 0 mm 2 mps 762 mmHg 71%
    01:00 +26°C° 0 mm 2 mps 762 mmHg 72%
    02:00 +26°C° 0 mm 2 mps 762 mmHg 72%
    03:00 +26°C° 0 mm 2 mps 762 mmHg 73%
    04:00 +25°C° 0 mm 2 mps 761 mmHg 74%
    05:00 +25°C° 0 mm 2 mps 761 mmHg 75%
    06:00 +25°C° 0 mm 2 mps 761 mmHg 76%
    07:00 +26°C° 0 mm 2 mps 762 mmHg 69%
    08:00 +28°C° 0 mm 2 mps 762 mmHg 63%
    09:00 +29°C° 0 mm 2 mps 762 mmHg 57%
    10:00 +31°C° 0 mm 3 mps 762 mmHg 52%
    11:00 +33°C° 0 mm 3 mps 762 mmHg 47%
    12:00 +34°C° 0 mm 3 mps 762 mmHg 42%
    13:00 +34°C° 0 mm 3 mps 761 mmHg 43%
    14:00 +34°C° 0 mm 3 mps 761 mmHg 43%
    15:00 +34°C° 0 mm 3 mps 761 mmHg 43%
    16:00 +33°C° 0 mm 3 mps 760 mmHg 48%
    17:00 +31°C° 0 mm 2 mps 760 mmHg 53%
    18:00 +30°C° 0 mm 2 mps 760 mmHg 57%
    19:00 +29°C° 0 mm 2 mps 761 mmHg 63%
    20:00 +28°C° 0 mm 2 mps 761 mmHg 68%
    21:00 +27°C° 0 mm 1 mps 762 mmHg 73%
    22:00 +27°C° 0 mm 1 mps 761 mmHg 74%
    23:00 +26°C° 0 mm 1 mps 761 mmHg 74%

    Day after tomorrow, 21 September, Friday

    Time Temperature Precipitation Wind Pressure Humidity
    00:00 +26°C° 0 mm 1 mps 761 mmHg 75%
    01:00 +26°C° 0 mm 1 mps 761 mmHg 74%
    02:00 +26°C° 0 mm 1 mps 761 mmHg 74%
    03:00 +25°C° 0 mm 1 mps 761 mmHg 73%
    04:00 +25°C° 0 mm 1 mps 761 mmHg 72%
    05:00 +25°C° 0 mm 1 mps 761 mmHg 71%
    06:00 +25°C° 0 mm 1 mps 761 mmHg 69%
    07:00 +27°C° 0 mm 1 mps 761 mmHg 62%
    08:00 +28°C° 0 mm 1 mps 761 mmHg 54%
    09:00 +30°C° 0 mm 1 mps 762 mmHg 46%
    10:00 +31°C° 0 mm 1 mps 762 mmHg 43%
    11:00 +32°C° 0 mm 2 mps 762 mmHg 39%
    12:00 +35°C° 0 mm 2 mps 762 mmHg 36%
    13:00 +35°C° 0 mm 2 mps 761 mmHg 36%
    14:00 +35°C° 0 mm 2 mps 761 mmHg 36%
    15:00 +35°C° 0 mm 2 mps 760 mmHg 36%
    16:00 +34°C° 0 mm 2 mps 760 mmHg 40%
    17:00 +32°C° 0 mm 2 mps 760 mmHg 44%
    18:00 +31°C° 0 mm 1 mps 760 mmHg 48%
    19:00 +30°C° 0 mm 1 mps 761 mmHg 52%
    20:00 +29°C° 0 mm 1 mps 762 mmHg 56%
    21:00 +28°C° 0 mm 1 mps 762 mmHg 59%
    22:00 +28°C° 0 mm 1 mps 762 mmHg 60%
    23:00 +28°C° 0 mm 1 mps 762 mmHg 60%

    22 September, Saturday

    Time Temperature Precipitation Wind Pressure Humidity
    00:00 +27°C° 0 mm 1 mps 762 mmHg 61%
    01:00 +27°C° 0 mm 1 mps 762 mmHg 59%
    02:00 +27°C° 0 mm 1 mps 762 mmHg 58%
    03:00 +27°C° 0 mm 1 mps 762 mmHg 57%
    04:00 +27°C° 0 mm 1 mps 762 mmHg 56%
    05:00 +26°C° 0 mm 1 mps 762 mmHg 55%
    06:00 +26°C° 0 mm 1 mps 762 mmHg 55%
    07:00 +28°C° 0 mm 1 mps 763 mmHg 51%
    08:00 +29°C° 0 mm 2 mps 763 mmHg 47%
    09:00 +31°C° 0 mm 2 mps 763 mmHg 43%
    10:00 +32°C° 0 mm 2 mps 763 mmHg 41%
    11:00 +34°C° 0 mm 3 mps 763 mmHg 40%
    12:00 +35°C° 0 mm 3 mps 763 mmHg 38%
    13:00 +35°C° 0 mm 3 mps 763 mmHg 38%
    14:00 +35°C° 0 mm 3 mps 762 mmHg 38%
    15:00 +35°C° 0 mm 3 mps 762 mmHg 38%
    16:00 +34°C° 0 mm 3 mps 762 mmHg 42%
    17:00 +33°C° 0 mm 3 mps 762 mmHg 46%
    18:00 +31°C° 0 mm 2 mps 762 mmHg 50%
    19:00 +30°C° 0 mm 2 mps 763 mmHg 52%
    20:00 +29°C° 0 mm 2 mps 763 mmHg 55%
    21:00 +28°C° 0 mm 2 mps 763 mmHg 58%
    22:00 +28°C° 0 mm 2 mps 763 mmHg 58%
    23:00 +28°C° 0 mm 2 mps 763 mmHg 58%

    23 September, Sunday

    Time Temperature Precipitation Wind Pressure Humidity
    00:00 +27°C° 0 mm 2 mps 763 mmHg 58%
    01:00 +27°C° 0 mm 2 mps 763 mmHg 58%
    02:00 +27°C° 0 mm 1 mps 762 mmHg 58%
    03:00 +27°C° 0 mm 1 mps 762 mmHg 58%
    04:00 +26°C° 0 mm 1 mps 762 mmHg 58%
    05:00 +26°C° 0 mm 1 mps 762 mmHg 58%
    06:00 +26°C° 0 mm 1 mps 762 mmHg 59%
    07:00 +28°C° 0 mm 1 mps 762 mmHg 53%
    08:00 +29°C° 0 mm 1 mps 762 mmHg 47%
    09:00 +31°C° 0 mm 1 mps 762 mmHg 41%
    10:00 +32°C° 0 mm 1 mps 762 mmHg 38%
    11:00 +34°C° 0 mm 1 mps 762 mmHg 34%
    12:00 +36°C° 0 mm 2 mps 762 mmHg 31%
    13:00 +36°C° 0 mm 2 mps 761 mmHg 30%
    14:00 +36°C° 0 mm 2 mps 761 mmHg 30%
    15:00 +37°C° 0 mm 2 mps 760 mmHg 29%
    16:00 +36°C° 0 mm 2 mps 760 mmHg 32%
    17:00 +34°C° 0 mm 1 mps 760 mmHg 34%
    18:00 +33°C° 0 mm 1 mps 760 mmHg 37%
    19:00 +32°C° 0 mm 1 mps 760 mmHg 37%
    20:00 +31°C° 0 mm 2 mps 760 mmHg 38%
    21:00 +30°C° 0 mm 2 mps 761 mmHg 39%
    22:00 +30°C° 0 mm 2 mps 760 mmHg 39%
    23:00 +30°C° 0 mm 2 mps 760 mmHg 39%

    24 September, Monday

    Time Temperature Precipitation Wind Pressure Humidity
    00:00 +29°C° 0 mm 2 mps 760 mmHg 39%
    01:00 +29°C° 0 mm 2 mps 760 mmHg 40%
    02:00 +29°C° 0 mm 2 mps 759 mmHg 40%
    03:00 +29°C° 0 mm 2 mps 759 mmHg 41%
    04:00 +28°C° 0 mm 2 mps 759 mmHg 42%
    05:00 +28°C° 0 mm 1 mps 759 mmHg 44%
    06:00 +28°C° 0 mm 1 mps 760 mmHg 45%
    07:00 +29°C° 0 mm 1 mps 760 mmHg 41%
    08:00 +31°C° 0 mm 2 mps 761 mmHg 37%
    09:00 +34°C° 0 mm 2 mps 761 mmHg 33%
    10:00 +34°C° 0 mm 3 mps 761 mmHg 37%
    11:00 +34°C° 0 mm 5 mps 761 mmHg 40%
    12:00 +34°C° 0 mm 7 mps 762 mmHg 43%
    13:00 +34°C° 0 mm 6 mps 761 mmHg 46%
    14:00 +33°C° 0 mm 6 mps 761 mmHg 50%
    15:00 +32°C° 0 mm 5 mps 761 mmHg 53%
    16:00 +30°C° 0 mm 5 mps 761 mmHg 57%
    17:00 +29°C° 0 mm 4 mps 761 mmHg 61%
    18:00 +28°C° 0 mm 4 mps 761 mmHg 65%
    19:00 +27°C° 0 mm 4 mps 762 mmHg 68%
    20:00 +26°C° 0 mm 4 mps 762 mmHg 71%
    21:00 +26°C° 0 mm 4 mps 763 mmHg 74%
    22:00 +25°C° 0.1 mm 4 mps 763 mmHg 77%
    23:00 +25°C° 0.1 mm 4 mps 763 mmHg 81%
    Show more